TAKA

Last updated on Thu Jun 01 2023 00:02:07 GMT+0000 (Coordinated Universal Time)

1 54536U 98067UN 23150.94131286 .04856247 12131-4 89688-3 0 9998 2 54536 51.6230 29.2118 0009634 252.4268 233.1099 16.31322662 28195

Satellite not in orbit

TAKA